SL-14 DEB, 45347

Orbit data source: Space-Track

SL-14 DEB, 45347 is space debris in LEO originally from a launch on Thu, 15 Aug 1991 UTC launched from the Plesetsk Missile And Space Complex (PKMTR). Debris objects in space refer to the collection of defunct objects orbiting the Earth. Examples of debris include non-operational satellites, rocket bodies, and fragments generated from explosions, collisions, or faulty payload assembly.

Loading next visibility...
Identifier
45347, 1991-056CG
Orbit
LEO
Country
Flag of CISCIS
Related business
Manufacturer
Unknown
Mission
Spacecraft
Bus & Motor
Unknown
Mass
Unknown
Launch date (UTC)
1991-08-15 (35 years ago)
Launch vehicle
Unknown
Launch site
Plesetsk Missile And Space Complex (PKMTR)
Object type
Payload
Rocket body
Debris
Shape & HBR
Unknown shape, 0.1 m
Radar Cross Section
Small (<0.1 m²)

Expand to show TLE details & history
Last TLE update: 3 days ago

TLE from 3 days ago
0 SL-14 DEB
1 45347U 91056CG  26235.54802530  .00006635  00000-0  40463-2 0  9998
2 45347  82.6294 319.3332 0118169  78.9213 282.5219 14.02496382325475
Epoch: 2026-08-23T13:09Z
TLE epoch observation values (Epoch: 2026-08-23T13:09:09.385Z)
Latitude
-0.0001°
Longitude
150.20158°
Altitude
870.451 km
Speed
7.426 km/s
True Right ascension
21h 17m 19s
True Declination
0° 00' 00"
Sunlit
Object was in full shadow at epoch
Visualization orbit readout
Latitude
Unknown
Longitude
Unknown
Altitude
Unknown
Speed
Unknown
Apparent Right ascension
Unknown
Apparent Declination
Unknown
Sunlit
N/A
Visualization observer readout
Local Sidereal Time
19:06:11
Azimuth
Unknown
Elevation
Unknown
Doppler factor
Unknown
Orbital elements
Apogee altitude
968.082 km
Perigee altitude
796.49 km
Semi-major axis
7,260.423 km
Eccentricity
0.01182
Inclination
82.6294°
RAAN
319.3332°
Arg. of periapsis
78.9213°
True anomaly
281.19586°
Mean anomaly
282.5219°
Eccentric anomaly
281.85929°
Mean motion
3.50833 °/min
Orbital period
102.61 mins
BSTAR
0.0040463
Loading maneuver chart data...
Computing Atmospheric mass density...
Loading historical data...
Loading historical data...
Loading historical data...
Loading historical data...
Loading historical data...
Loading historical data...
Loading historical data...

Documentation

Showing up to 5 results
|